Beaver, WV

5:44 PM EDT on July 28, 2016 (GMT -0400)
Raleigh County Memorial

Weather History for KBKW - May, 2014

Change the Weather History Date:

Friday, May 16, 2014

  Actual Average Record
Temperature  
Mean Temperature 49 °F 60 °F  
Max Temperature 58 °F 70 °F 85 °F (1911)
Min Temperature 40 °F 49 °F 30 °F (1984)
Degree Days  
Heating Degree Days 16 6  
Month to date heating degree days 69 121  
Since 1 July heating degree days 5395 5230  
Cooling Degree Days 0 1  
Month to date cooling degree days 43 10  
Year to date cooling degree days 48 20  
Moisture  
Dew Point 41 °F    
Average Humidity 68    
Maximum Humidity 93    
Minimum Humidity 43    
Precipitation  
Precipitation 0.33 in 0.16 in 1.92 in (2010)
Month to date precipitation 3.28 2.34  
Year to date precipitation 13.53 14.84  
Snow  
Snow 0.00 in - - ()
Month to date snowfall 0.0  
Since 1 September snowfall 76.3  
Snow Depth 0.00 in    
Sea Level Pressure  
Sea Level Pressure 30.01 in    
Wind  
Wind Speed 7 mph (WNW)    
Max Wind Speed 21 mph    
Max Gust Speed 30 mph    
Visibility 9 miles    
Events Rain    
T = Trace of Precipitation, MM = Missing Value Source: NWS Daily Summary

Daily Weather History Graph

Daily Weather History Graph

Search for Another Location

Airport or City:

Trip Planner

Search our weather history database for the weather conditions in past years. The results will help you decide how hot, cold, wet, or windy it might be!

Date:

Astronomy

May. 16, 2014 Rise Set
Actual Time 6:13 AM EDT 8:28 PM EDT
Civil Twilight 5:44 AM EDT 8:57 PM EDT
Nautical Twilight 5:08 AM EDT 9:34 PM EDT
Astronomical Twilight 4:28 AM EDT 10:13 PM EDT
Moon 10:34 PM EDT (5/16) 7:54 AM EDT (5/16)
Length of Visible Light 15h 13m
Length of Day
14h 14m
Waning Gibbous, 95% of the Moon is Illuminated
May 16
Waning Gibbous
May 21
Last Quarter
May 28
New
Jun 5
First Quarter
Jun 13
Full

Hourly Weather History & Observations

Time (EDT) Temp. Windchill Dew Point Humidity Pressure Visibility Wind Dir Wind Speed Gust Speed Precip Events Conditions
12:10 AM 46.9 °F - 45.0 °F 93% 30.03 in 8.0 mi WNW 3.5 mph - N/A   Overcast
12:22 AM 46.9 °F - 44.1 °F 90% 30.03 in 10.0 mi NW 5.8 mph - N/A   Overcast
12:32 AM 46.9 °F - 45.0 °F 93% 30.03 in 9.0 mi NW 4.6 mph - N/A   Overcast
12:51 AM 46.9 °F - 44.1 °F 90% 29.99 in 10.0 mi WNW 6.9 mph - N/A   Overcast
1:01 AM 46.0 °F 41.4 °F 43.0 °F 89% 30.02 in 10.0 mi WNW 9.2 mph - N/A   Overcast
1:51 AM 46.0 °F 41.9 °F 43.0 °F 89% 29.97 in 10.0 mi NW 8.1 mph - N/A   Overcast
2:51 AM 45.0 °F 41.2 °F 42.1 °F 90% 29.96 in 10.0 mi NW 6.9 mph - N/A   Overcast
3:51 AM 45.0 °F 42.6 °F 42.1 °F 90% 29.98 in 10.0 mi WNW 4.6 mph - N/A   Overcast
4:27 AM 45.0 °F 41.8 °F 42.1 °F 90% 29.98 in 10.0 mi WNW 5.8 mph - N/A   Overcast
4:51 AM 45.0 °F 41.2 °F 42.1 °F 90% 29.97 in 10.0 mi WNW 6.9 mph - N/A   Overcast
4:57 AM 45.0 °F 41.8 °F 42.1 °F 90% 29.97 in 10.0 mi WNW 5.8 mph - N/A   Overcast
5:18 AM 45.0 °F 42.6 °F 42.1 °F 90% 29.97 in 10.0 mi WNW 4.6 mph - N/A   Overcast
5:51 AM 45.0 °F 42.6 °F 42.1 °F 90% 29.96 in 10.0 mi WNW 4.6 mph - N/A   Overcast
6:26 AM 44.1 °F 41.5 °F 42.1 °F 93% 29.97 in 10.0 mi WNW 4.6 mph - N/A   Overcast
6:51 AM 44.1 °F 40.1 °F 42.1 °F 93% 29.97 in 10.0 mi West 6.9 mph - N/A   Overcast
7:12 AM 44.1 °F 40.8 °F 41.0 °F 89% 29.98 in 10.0 mi WNW 5.8 mph - N/A   Overcast
7:22 AM 44.1 °F 40.8 °F 42.1 °F 93% 29.98 in 10.0 mi WNW 5.8 mph - N/A   Overcast
7:33 AM 44.1 °F 40.1 °F 41.0 °F 89% 29.98 in 10.0 mi WNW 6.9 mph - N/A   Overcast
7:51 AM 44.1 °F 40.8 °F 41.0 °F 89% 29.99 in 10.0 mi WNW 5.8 mph - N/A   Overcast
8:24 AM 45.0 °F 41.2 °F 41.0 °F 86% 29.98 in 10.0 mi NW 6.9 mph - N/A   Overcast
8:51 AM 45.0 °F 41.2 °F 41.0 °F 86% 30.00 in 10.0 mi WNW 6.9 mph - N/A   Overcast
9:10 AM 46.0 °F 41.4 °F 39.9 °F 79% 29.99 in 10.0 mi WNW 9.2 mph - N/A   Overcast
9:51 AM 46.9 °F - 37.9 °F 71% 30.01 in 10.0 mi WNW 9.2 mph - N/A   Overcast
10:03 AM 48.0 °F - 37.9 °F 68% 29.99 in 10.0 mi NW 6.9 mph - N/A   Overcast
10:41 AM 50.0 °F - 37.0 °F 61% 30.00 in 10.0 mi NNW 6.9 mph - N/A   Scattered Clouds
10:51 AM 48.9 °F - 37.9 °F 66% 30.00 in 10.0 mi West 9.2 mph - N/A   Mostly Cloudy
11:00 AM 50.0 °F - 39.9 °F 68% 30.00 in 10.0 mi West 8.1 mph - N/A   Mostly Cloudy
11:51 AM 52.0 °F - 37.9 °F 59% 29.99 in 10.0 mi West 10.4 mph - N/A   Mostly Cloudy
12:51 PM 54.0 °F - 37.9 °F 55% 29.98 in 10.0 mi NW 11.5 mph 18.4 mph N/A   Scattered Clouds
1:51 PM 57.9 °F - 37.9 °F 47% 29.95 in 10.0 mi NW 11.5 mph - N/A   Scattered Clouds
2:51 PM 55.9 °F - 35.1 °F 45% 29.94 in 10.0 mi Calm Calm - N/A   Mostly Cloudy
3:51 PM 57.2 °F - 35.6 °F 44% 29.95 in 10.0 mi WSW 11.5 mph - N/A   Overcast
4:51 PM 55.4 °F - 39.2 °F 54% 29.95 in 10.0 mi West 11.5 mph - N/A   Partly Cloudy
5:51 PM 57.0 °F - 39.9 °F 53% 29.94 in 10.0 mi Variable 3.5 mph - N/A   Mostly Cloudy
6:51 PM 45.0 °F 38.9 °F 39.9 °F 82% 30.00 in 6.0 mi NW 12.7 mph 20.7 mph 0.08 in Rain Light Rain
7:51 PM 45.0 °F 41.8 °F 41.0 °F 86% 30.05 in 10.0 mi SSW 5.8 mph - 0.04 in   Overcast
8:41 PM 45.0 °F 41.8 °F 42.1 °F 90% 30.05 in 2.5 mi West 5.8 mph - 0.05 in Rain Heavy Rain
8:51 PM 42.1 °F 37.1 °F 39.0 °F 89% 30.09 in 2.5 mi NW 8.1 mph 20.7 mph 0.12 in Rain Heavy Rain
9:03 PM 42.1 °F 37.1 °F 39.9 °F 92% 30.07 in 3.0 mi NW 8.1 mph - 0.05 in Rain Rain
9:35 PM 43.0 °F 39.5 °F 39.9 °F 89% 30.08 in 10.0 mi WNW 5.8 mph - 0.08 in Rain Light Rain
9:51 PM 43.0 °F 41.3 °F 39.9 °F 89% 30.10 in 10.0 mi WNW 3.5 mph - 0.09 in Rain Light Rain
10:32 PM 43.0 °F - 41.0 °F 93% 30.09 in 10.0 mi Calm Calm - 0.00 in   Mostly Cloudy
10:35 PM 43.0 °F - 41.0 °F 93% 30.09 in 10.0 mi Calm Calm - 0.00 in   Mostly Cloudy
10:48 PM 42.8 °F 41.1 °F 39.2 °F 87% 30.08 in 10.0 mi WSW 3.5 mph - 0.00 in   Mostly Cloudy
10:51 PM 42.1 °F 39.2 °F 39.0 °F 89% 30.10 in 10.0 mi SW 4.6 mph - 0.00 in   Overcast
11:51 PM 42.1 °F 37.7 °F 39.0 °F 89% 30.10 in 10.0 mi WSW 6.9 mph - N/A   Partly Cloudy